Total_Precipitation_Accumulation
0.39 0.41 0.36 0.37 0.23 0.17 0.27 0.29 0.19 0.20 0.20 0.10 0.10 0.10 0.07 0.04 0.08 0.29 0.53 0.40 0.66 0.38 0.14 0.05 0.03 0.01 0.00 0.00 0.01 0.01 0.06 0.07 0.08 0.07 0.02 0.00 0.00 0.00 0.00 0.00 0.00 0.00 0.00 0.00 0.00 0.00 0.00 0.00 0.00 0.00 0.00 0.00 0.00 0.00
0.49 0.31 0.27 0.27 0.15 0.17 0.25 0.27 0.19 0.18 0.15 0.11 0.09 0.06 0.04 0.04 0.07 0.31 0.56 0.30 0.43 0.60 0.28 0.09 0.03 0.01 0.00 0.00 0.00 0.00 0.01 0.01 0.01 0.04 0.01 0.02 0.00 0.00 0.00 0.00 0.00 0.00 0.00 0.00 0.00 0.00 0.00 0.00 0.00 0.00 0.00 0.00 0.00 0.00
0.59 0.28 0.19 0.17 0.16 0.20 0.25 0.20 0.15 0.14 0.13 0.10 0.07 0.05 0.04 0.05 0.08 0.31 0.47 0.46 0.61 0.99 0.44 0.13 0.04 0.00 0.00 0.00 0.02 0.01 0.00 0.01 0.02 0.05 0.03 0.01 0.01 0.00 0.00 0.00 0.00 0.00 0.00 0.00 0.00 0.00 0.00 0.00 0.00 0.00 0.00 0.00 0.00 0.00
0.52 0.38 0.23 0.23 0.22 0.18 0.17 0.15 0.14 0.13 0.11 0.11 0.05 0.07 0.06 0.05 0.09 0.31 0.41 0.82 1.12 1.03 0.83 0.27 0.12 0.06 0.02 0.00 0.01 0.02 0.01 0.00 0.02 0.03 0.05 0.02 0.01 0.00 0.00 0.00 0.00 0.00 0.00 0.00 0.00 0.00 0.00 0.00 0.00 0.00 0.00 0.00 0.00 0.00
0.48 0.39 0.31 0.19 0.16 0.16 0.14 0.17 0.14 0.10 0.12 0.10 0.08 0.08 0.07 0.08 0.12 0.37 0.46 0.92 1.29 1.33 1.02 0.59 0.14 0.11 0.08 0.02 0.01 0.01 0.01 0.00 0.00 0.04 0.04 0.02 0.00 0.00 0.00 0.00 0.00 0.00 0.00 0.00 0.00 0.00 0.00 0.00 0.00 0.00 0.00 0.00 0.00 0.00
0.46 0.40 0.31 0.20 0.17 0.13 0.12 0.15 0.13 0.17 0.17 0.14 0.13 0.14 0.11 0.11 0.19 0.65 0.82 0.66 0.71 0.98 1.03 0.87 0.17 0.09 0.11 0.10 0.12 0.04 0.03 0.02 0.04 0.03 0.01 0.00 0.00 0.00 0.00 0.00 0.00 0.00 0.00 0.00 0.00 0.00 0.00 0.00 0.00 0.00 0.00 0.00 0.00 0.00
0.51 0.43 0.31 0.19 0.12 0.08 0.11 0.14 0.16 0.18 0.22 0.18 0.18 0.17 0.19 0.22 0.34 0.89 0.84 0.73 0.40 0.68 0.86 0.79 0.59 0.15 0.14 0.15 0.47 0.34 0.20 0.12 0.16 0.06 0.00 0.00 0.00 0.01 0.00 0.00 0.00 0.00 0.00 0.00 0.00 0.00 0.00 0.00 0.00 0.00 0.00 0.00 0.00 0.00
0.43 0.32 0.25 0.18 0.14 0.13 0.13 0.12 0.13 0.15 0.15 0.12 0.11 0.16 0.25 0.38 0.59 0.95 0.59 0.56 0.44 0.38 0.51 0.59 0.71 0.34 0.13 0.15 0.31 0.51 0.27 0.32 0.25 0.11 0.04 0.01 0.01 0.00 0.00 0.00 0.00 0.00 0.00 0.00 0.00 0.00 0.00 0.00 0.00 0.00 0.00 0.00 0.00 0.00
0.28 0.22 0.18 0.18 0.19 0.13 0.12 0.10 0.12 0.11 0.08 0.09 0.11 0.25 0.50 0.82 1.02 0.87 0.47 0.60 0.56 0.43 0.45 0.26 0.46 0.39 0.11 0.09 0.06 0.27 0.34 0.30 0.12 0.09 0.05 0.03 0.01 0.00 0.00 0.00 0.00 0.00 0.00 0.00 0.00 0.00 0.00 0.00 0.00 0.00 0.00 0.01 0.03 0.10
0.18 0.17 0.18 0.16 0.19 0.16 0.14 0.12 0.11 0.09 0.11 0.20 0.37 0.64 0.83 0.86 1.00 0.70 0.68 0.72 0.47 0.34 0.16 0.10 0.21 0.36 0.15 0.11 0.09 0.06 0.26 0.31 0.15 0.04 0.04 0.05 0.02 0.00 0.00 0.00 0.00 0.00 0.00 0.00 0.00 0.00 0.00 0.01 0.03 0.07 0.10 0.11 0.11 0.11
0.22 0.18 0.16 0.11 0.12 0.16 0.14 0.13 0.14 0.20 0.36 0.50 0.68 0.78 0.69 0.84 0.86 0.77 0.62 0.45 0.30 0.20 0.07 0.03 0.11 0.29 0.10 0.07 0.10 0.06 0.06 0.08 0.03 0.01 0.02 0.02 0.01 0.00 0.00 0.01 0.01 0.00 0.00 0.01 0.00 0.00 0.01 0.04 0.11 0.14 0.12 0.08 0.04 0.01
0.19 0.11 0.06 0.04 0.06 0.12 0.10 0.08 0.13 0.26 0.40 0.53 0.55 0.48 0.77 0.88 0.73 0.56 0.34 0.15 0.05 0.03 0.02 0.03 0.04 0.12 0.10 0.03 0.04 0.05 0.05 0.02 0.01 0.01 0.02 0.02 0.01 0.02 0.02 0.02 0.02 0.01 0.01 0.01 0.02 0.07 0.13 0.14 0.13 0.09 0.03 0.00 0.00 0.00
0.21 0.16 0.12 0.09 0.04 0.07 0.10 0.11 0.27 0.38 0.43 0.38 0.47 0.64 0.78 0.76 0.74 0.52 0.19 0.05 0.01 0.00 0.02 0.03 0.06 0.04 0.04 0.03 0.08 0.16 0.23 0.13 0.05 0.04 0.02 0.03 0.02 0.04 0.06 0.06 0.06 0.06 0.09 0.13 0.16 0.15 0.10 0.05 0.01 0.01 0.01 0.01 0.01 0.01
0.13 0.14 0.16 0.18 0.21 0.27 0.27 0.28 0.37 0.43 0.32 0.35 0.38 0.52 0.47 0.42 0.25 0.22 0.09 0.04 0.04 0.05 0.02 0.01 0.07 0.10 0.07 0.09 0.25 0.42 0.47 0.29 0.27 0.12 0.06 0.10 0.15 0.30 0.23 0.12 0.09 0.07 0.05 0.04 0.02 0.00 0.00 0.00 0.00 0.00 0.00 0.00 0.00 0.00
0.11 0.11 0.16 0.34 0.39 0.32 0.26 0.29 0.20 0.15 0.11 0.12 0.10 0.19 0.19 0.14 0.09 0.08 0.06 0.05 0.09 0.10 0.15 0.18 0.21 0.23 0.26 0.41 0.40 0.37 0.33 0.26 0.20 0.19 0.25 0.32 0.30 0.29 0.11 0.02 0.00 0.00 0.01 0.01 0.01 0.00 0.00 0.00 0.00 0.00 0.00 0.00 0.00 0.00
0.05 0.08 0.15 0.21 0.16 0.09 0.07 0.07 0.07 0.09 0.18 0.19 0.21 0.20 0.16 0.12 0.15 0.14 0.15 0.16 0.18 0.20 0.24 0.31 0.32 0.39 0.46 0.40 0.28 0.22 0.21 0.25 0.34 0.19 0.16 0.15 0.10 0.12 0.10 0.06 0.03 0.03 0.03 0.02 0.01 0.01 0.00 0.00 0.00 0.00 0.00 0.00 0.00 0.00
0.07 0.08 0.07 0.04 0.02 0.01 0.01 0.06 0.14 0.21 0.23 0.20 0.39 0.39 0.31 0.27 0.32 0.32 0.30 0.28 0.23 0.20 0.22 0.24 0.30 0.30 0.29 0.28 0.31 0.31 0.37 0.29 0.18 0.16 0.13 0.11 0.12 0.11 0.12 0.12 0.07 0.04 0.02 0.00 0.00 0.00 0.00 0.00 0.00 0.00 0.00 0.00 0.00 0.00
0.04 0.05 0.01 0.00 0.01 0.01 0.01 0.03 0.07 0.05 0.15 0.27 0.31 0.43 0.31 0.36 0.33 0.30 0.31 0.26 0.24 0.23 0.23 0.28 0.26 0.31 0.37 0.34 0.37 0.37 0.38 0.32 0.25 0.20 0.18 0.18 0.17 0.12 0.09 0.07 0.05 0.04 0.02 0.01 0.00 0.00 0.00 0.00 0.00 0.00 0.00 0.00 0.00 0.00
0.01 0.02 0.00 0.01 0.00 0.00 0.01 0.01 0.01 0.08 0.26 0.27 0.26 0.20 0.16 0.20 0.18 0.18 0.14 0.10 0.08 0.07 0.08 0.12 0.17 0.25 0.33 0.34 0.39 0.37 0.32 0.26 0.19 0.14 0.12 0.14 0.15 0.13 0.11 0.09 0.11 0.12 0.06 0.02 0.01 0.00 0.00 0.00 0.00 0.00 0.00 0.00 0.00 0.01
0.00 0.00 0.00 0.03 0.01 0.00 0.00 0.00 0.00 0.04 0.14 0.17 0.14 0.05 0.04 0.05 0.03 0.02 0.02 0.01 0.00 0.00 0.03 0.10 0.22 0.26 0.25 0.26 0.28 0.27 0.25 0.20 0.12 0.06 0.11 0.16 0.18 0.14 0.15 0.13 0.12 0.08 0.05 0.04 0.03 0.02 0.02 0.03 0.03 0.03 0.02 0.02 0.02 0.02
0.02 0.00 0.00 0.01 0.05 0.01 0.00 0.00 0.01 0.02 0.03 0.02 0.01 0.00 0.00 0.01 0.01 0.01 0.01 0.00 0.01 0.03 0.13 0.20 0.22 0.20 0.16 0.13 0.12 0.12 0.14 0.15 0.17 0.13 0.12 0.16 0.18 0.14 0.16 0.18 0.16 0.14 0.12 0.13 0.13 0.13 0.11 0.11 0.09 0.07 0.07 0.04 0.02 0.03
0.01 0.00 0.00 0.01 0.05 0.06 0.02 0.00 0.00 0.00 0.00 0.01 0.01 0.01 0.02 0.02 0.02 0.02 0.02 0.03 0.09 0.18 0.20 0.15 0.10 0.08 0.06 0.06 0.06 0.06 0.09 0.11 0.17 0.27 0.34 0.28 0.29 0.29 0.31 0.32 0.24 0.23 0.21 0.21 0.18 0.15 0.12 0.09 0.06 0.05 0.03 0.02 0.02 0.02
0.00 0.01 0.02 0.02 0.06 0.05 0.04 0.01 0.03 0.01 0.00 0.01 0.03 0.02 0.02 0.02 0.03 0.02 0.04 0.07 0.14 0.18 0.19 0.09 0.05 0.09 0.12 0.19 0.16 0.15 0.13 0.10 0.12 0.17 0.22 0.25 0.27 0.28 0.27 0.26 0.24 0.21 0.17 0.15 0.11 0.09 0.06 0.03 0.01 0.01 0.01 0.03 0.03 0.02
0.01 0.02 0.10 0.12 0.06 0.07 0.05 0.05 0.04 0.04 0.02 0.01 0.02 0.03 0.03 0.03 0.01 0.03 0.04 0.08 0.15 0.09 0.08 0.13 0.14 0.13 0.13 0.14 0.16 0.19 0.25 0.20 0.21 0.22 0.23 0.18 0.17 0.18 0.14 0.11 0.08 0.07 0.05 0.04 0.01 0.01 0.00 0.01 0.02 0.03 0.02 0.02 0.01 0.02
0.07 0.04 0.12 0.14 0.11 0.08 0.04 0.03 0.05 0.04 0.03 0.02 0.03 0.03 0.02 0.02 0.04 0.04 0.05 0.14 0.12 0.12 0.16 0.20 0.16 0.16 0.17 0.19 0.21 0.20 0.17 0.12 0.10 0.09 0.11 0.08 0.07 0.05 0.01 0.00 0.00 0.01 0.00 0.01 0.01 0.02 0.02 0.02 0.01 0.01 0.01 0.02 0.04 0.06
0.21 0.11 0.07 0.07 0.06 0.07 0.04 0.02 0.02 0.03 0.03 0.07 0.08 0.05 0.04 0.07 0.07 0.10 0.14 0.21 0.18 0.18 0.21 0.23 0.23 0.18 0.17 0.15 0.14 0.12 0.08 0.06 0.03 0.02 0.02 0.00 0.01 0.01 0.01 0.01 0.01 0.01 0.00 0.02 0.04 0.03 0.01 0.01 0.01 0.02 0.03 0.04 0.05 0.07
0.16 0.11 0.05 0.05 0.08 0.13 0.19 0.17 0.16 0.16 0.13 0.14 0.11 0.08 0.15 0.18 0.14 0.19 0.21 0.26 0.27 0.28 0.23 0.18 0.12 0.10 0.11 0.10 0.08 0.06 0.03 0.01 0.01 0.01 0.01 0.02 0.02 0.01 0.01 0.02 0.03 0.02 0.01 0.01 0.02 0.03 0.05 0.04 0.03 0.03 0.04 0.04 0.06 0.08
0.09 0.08 0.09 0.11 0.18 0.22 0.21 0.19 0.22 0.25 0.25 0.19 0.17 0.15 0.16 0.13 0.16 0.21 0.26 0.29 0.21 0.15 0.10 0.07 0.05 0.03 0.03 0.04 0.04 0.03 0.02 0.01 0.01 0.01 0.02 0.04 0.02 0.00 0.00 0.01 0.01 0.00 0.01 0.01 0.01 0.02 0.03 0.06 0.07 0.07 0.06 0.08 0.08 0.10
0.09 0.11 0.11 0.11 0.07 0.07 0.10 0.14 0.15 0.16 0.15 0.12 0.10 0.09 0.10 0.11 0.19 0.20 0.21 0.20 0.15 0.10 0.07 0.07 0.09 0.06 0.03 0.02 0.01 0.00 0.00 0.00 0.00 0.00 0.00 0.01 0.02 0.01 0.00 0.01 0.01 0.00 0.01 0.01 0.00 0.00 0.03 0.08 0.09 0.12 0.10 0.10 0.10 0.10
0.02 0.02 0.02 0.01 0.02 0.06 0.07 0.06 0.09 0.08 0.05 0.05 0.03 0.04 0.05 0.11 0.18 0.16 0.12 0.10 0.09 0.10 0.10 0.08 0.06 0.03 0.02 0.02 0.01 0.02 0.03 0.01 0.00 0.00 0.01 0.01 0.02 0.01 0.01 0.02 0.01 0.01 0.01 0.01 0.01 0.01 0.01 0.01 0.04 0.08 0.05 0.06 0.09 0.09
0.01 0.01 0.01 0.01 0.04 0.06 0.06 0.03 0.06 0.07 0.06 0.04 0.04 0.04 0.06 0.10 0.12 0.09 0.08 0.13 0.07 0.06 0.04 0.02 0.01 0.00 0.00 0.01 0.01 0.01 0.02 0.02 0.02 0.01 0.01 0.02 0.01 0.01 0.02 0.02 0.02 0.02 0.02 0.02 0.02 0.03 0.04 0.02 0.04 0.06 0.04 0.04 0.06 0.06
0.01 0.01 0.01 0.05 0.08 0.04 0.03 0.05 0.08 0.11 0.07 0.06 0.07 0.05 0.07 0.07 0.05 0.06 0.05 0.05 0.03 0.01 0.01 0.01 0.01 0.02 0.01 0.01 0.01 0.01 0.02 0.01 0.01 0.01 0.02 0.02 0.01 0.01 0.01 0.01 0.01 0.02 0.02 0.02 0.03 0.05 0.04 0.04 0.05 0.05 0.06 0.05 0.06 0.05
0.01 0.00 0.01 0.01 0.03 0.04 0.02 0.02 0.04 0.04 0.04 0.05 0.07 0.07 0.07 0.07 0.06 0.08 0.07 0.03 0.02 0.01 0.01 0.01 0.01 0.02 0.03 0.01 0.00 0.00 0.00 0.00 0.00 0.01 0.02 0.02 0.01 0.01 0.01 0.01 0.01 0.02 0.01 0.01 0.03 0.04 0.04 0.04 0.04 0.05 0.04 0.04 0.04 0.04